User: anonymous   Login
Location: Niedergestelen
(46.3129°N, 7.7822°E)
Time: 22:58:22
(UTC+00:00)
Language:

IRIDIUM 102 - Orbit

View from above orbital plane
View from above orbital plane
View from above satellite
View from above satellite

Ground track
Ground track

The orbit data is extracted from the following two-line orbital elements,

1 41920U 17003D   21175.33169978  .00000067  00000-0  16955-4 0  9992
2 41920  86.3974 128.5277 0002105  80.3982 279.7451 14.34217164232583
Epoch (UTC): 24 June 2021 07:57:38
Eccentricity: 0.0002105
inclination: 86.3974°
perigee height: 776 km
apogee height: 779 km
right ascension of ascending node: 128.5277°
argument of perigee: 80.3982°
revolutions per day: 14.34217164
mean anomaly at epoch: 279.7451°
orbit number at epoch: 23258

The dashed part of the orbit path shows where the satellite is in the earth's shadow,  

DLR